This is the latest recevied weather packets stored in our database for station/object SV9TNF-1. If no packets are shown the sender has not sent any weather packets the latest 1 day(s).
| Time | Temp. | Humidity | Pressure | Rain* | Wind** | Luminosity | Snow |
|---|---|---|---|---|---|---|---|
| 1778080833 | 22.78° C | 54% | 1005.1 hPa | 0 mm | 1.34 m/s, 118° | - | - |
| 1778080533 | 22.78° C | 54% | 1005.1 hPa | 0 mm | 1.79 m/s, 125° | - | - |
| 1778079333 | 23.33° C | 58% | 1005.1 hPa | 0 mm | 2.68 m/s, 126° | - | - |
| 1778078432 | 23.89° C | 52% | 1005.1 hPa | 0 mm | 2.68 m/s, 137° | - | - |
| 1778078132 | 23.33° C | 55% | 1005.1 hPa | 0 mm | 4.02 m/s, 101° | - | - |
| 1778077832 | 23.33° C | 51% | 1005.1 hPa | 0 mm | 4.02 m/s, 112° | - | - |
| 1778076932 | 25° C | 42% | 1005.1 hPa | 0 mm | 2.68 m/s, 124° | - | - |
| 1778075431 | 24.44° C | 40% | 1005.4 hPa | 0 mm | 3.13 m/s, 135° | - | - |
| 1778074531 | 24.44° C | 42% | 1005.1 hPa | 0 mm | 4.02 m/s, 99° | - | - |
| 1778073931 | 25° C | 37% | 1005.1 hPa | 0 mm | 3.13 m/s, 115° | - | - |
| 1778072430 | 24.44° C | 47% | 1005.1 hPa | 0 mm | 1.34 m/s, 131° | - | - |
| 1778071830 | 24.44° C | 47% | 1005.1 hPa | 0 mm | 5.81 m/s, 127° | - | - |
| 1778070930 | 24.44° C | 47% | 1005.4 hPa | 0 mm | 7.15 m/s, 102° | - | - |
| 1778070330 | 24.44° C | 49% | 1005.4 hPa | 0 mm | 4.92 m/s, 121° | - | - |
| 1778068829 | 25° C | 46% | 1005.4 hPa | 0 mm | 4.02 m/s, 116° | - | - |
| 1778067329 | 25° C | 52% | 1005.8 hPa | 0 mm | 3.58 m/s, 107° | - | - |
| 1778066428 | 24.44° C | 52% | 1005.8 hPa | 0 mm | 5.36 m/s, 113° | - | - |
| 1778066128 | 24.44° C | 47% | 1005.8 hPa | 0 mm | 5.81 m/s, 116° | - | - |
| 1778065528 | 24.44° C | 45% | 1005.8 hPa | 0 mm | 4.92 m/s, 115° | - | - |
| 1778064628 | 27.78° C | 45% | 1005.8 hPa | 0 mm | 1.79 m/s, 128° | - | - |
| 1778063427 | 27.78° C | 42% | 1005.8 hPa | 0 mm | 0.45 m/s, 124° | - | - |
| 1778062527 | 25.56° C | 38% | 1005.8 hPa | 0 mm | 6.71 m/s, 118° | - | - |
| 1778062227 | 25° C | 37% | 1005.8 hPa | 0 mm | 4.02 m/s, 119° | - | - |
| 1778061930 | 25.56° C | 35% | 1005.8 hPa | 0 mm | 1.34 m/s, 125° | - | - |
| 1778061327 | 26.67° C | 33% | 1005.8 hPa | 0 mm | 4.92 m/s, 103° | - | - |
* Rain latest hour (hover to see other rain measurements)
** Current wind speed in m/s (hover to see current wind gust speed)